| time (UTC) | temp F | wind direction | speed MPH | gust MPH | rain 1hr in | rain 24hr in | rain mn in | humidity % | barometer mb |
| 20260506050653 | 71 | 193 | 0.0 | 2.0 | 0.00 | 0.00 | 0.00 | 30 | 1007.5 |
| 20260506045050 | 71 | 193 | 1.0 | 2.0 | 0.00 | 0.00 | 0.00 | 28 | 1006.8 |
| 20260506044553 | 71 | 193 | 1.0 | 2.0 | 0.00 | 0.00 | 0.00 | 28 | 1007.1 |
| 20260506044050 | 72 | 193 | 0.0 | 0.0 | 0.00 | 0.00 | 0.00 | 29 | 1007.1 |
| 20260506043650 | 72 | 193 | 0.0 | 0.0 | 0.00 | 0.00 | 0.00 | 29 | 1007.1 |
| 20260506043050 | 72 | 193 | 0.0 | 0.0 | 0.00 | 0.00 | 0.00 | 28 | 1007.0 |
| 20260506042550 | 72 | 193 | 0.0 | 0.0 | 0.00 | 0.00 | 0.00 | 28 | 1007.0 |
| 20260506042051 | 72 | 193 | 0.0 | 0.0 | 0.00 | 0.00 | 0.00 | 27 | 1007.0 |
| 20260506041550 | 72 | 193 | 0.0 | 3.0 | 0.00 | 0.00 | 0.00 | 27 | 1006.9 |
| 20260506041049 | 72 | 193 | 1.0 | 3.0 | 0.00 | 0.00 | 0.00 | 28 | 1007.3 |
| 20260506040649 | 72 | 141 | 1.0 | 3.0 | 0.00 | 0.00 | 0.00 | 28 | 1007.3 |
| 20260506040059 | 72 | 141 | 1.0 | 3.0 | 0.00 | 0.00 | 0.00 | 28 | 1006.7 |
| 20260506035551 | 73 | 139 | 2.0 | 3.0 | 0.00 | 0.00 | 0.00 | 27 | 1006.9 |
| 20260506035050 | 73 | 135 | 2.0 | 3.0 | 0.00 | 0.00 | 0.00 | 26 | 1006.9 |
| 20260506034603 | 73 | 134 | 0.0 | 2.0 | 0.00 | 0.00 | 0.00 | 26 | 1006.8 |
| 20260506034049 | 73 | 134 | 0.0 | 2.0 | 0.00 | 0.00 | 0.00 | 27 | 1006.7 |
| 20260506033549 | 73 | 133 | 1.0 | 2.0 | 0.00 | 0.00 | 0.00 | 26 | 1006.7 |
| 20260506033049 | 73 | 133 | 0.0 | 3.0 | 0.00 | 0.00 | 0.00 | 26 | 1006.6 |
| 20260506032549 | 74 | 133 | 1.0 | 3.0 | 0.00 | 0.00 | 0.00 | 25 | 1006.6 |
| 20260506032051 | 74 | 134 | 1.0 | 2.0 | 0.00 | 0.00 | 0.00 | 25 | 1006.5 |
| 20260506031558 | 74 | 135 | 0.0 | 2.0 | 0.00 | 0.00 | 0.00 | 24 | 1006.5 |
| 20260506031054 | 75 | 135 | 0.0 | 2.0 | 0.00 | 0.00 | 0.00 | 23 | 1006.4 |
| 20260506030549 | 75 | 135 | 1.0 | 3.0 | 0.00 | 0.00 | 0.00 | 23 | 1006.5 |
| 20260506030048 | 75 | 135 | 1.0 | 3.0 | 0.00 | 0.00 | 0.00 | 22 | 1006.5 |
| 20260506025548 | 75 | 135 | 0.0 | 2.0 | 0.00 | 0.00 | 0.00 | 23 | 1006.3 |
| 20260506025048 | 76 | 135 | 0.0 | 2.0 | 0.00 | 0.00 | 0.00 | 23 | 1006.5 |
| 20260506024548 | 76 | 135 | 1.0 | 2.0 | 0.00 | 0.00 | 0.00 | 22 | 1006.4 |
| 20260506024048 | 77 | 135 | 1.0 | 2.0 | 0.00 | 0.00 | 0.00 | 21 | 1006.4 |
| 20260506023549 | 77 | 135 | 0.0 | 5.0 | 0.00 | 0.00 | 0.00 | 20 | 1006.5 |
| 20260506023048 | 78 | 135 | 2.0 | 5.0 | 0.00 | 0.00 | 0.00 | 20 | 1006.4 |
| 20260506022547 | 78 | 351 | 0.0 | 2.0 | 0.00 | 0.00 | 0.00 | 18 | 1006.2 |
| 20260506022046 | 78 | 351 | 0.0 | 3.0 | 0.00 | 0.00 | 0.00 | 17 | 1006.2 |
| 20260506021550 | 78 | 351 | 0.0 | 3.0 | 0.00 | 0.00 | 0.00 | 17 | 1006.0 |
| 20260506021047 | 79 | 351 | 1.0 | 3.0 | 0.00 | 0.00 | 0.00 | 17 | 1006.1 |
| 20260506020645 | 79 | 351 | 0.0 | 2.0 | 0.00 | 0.00 | 0.00 | 17 | 1006.1 |
| 20260506020047 | 79 | 351 | 0.0 | 2.0 | 0.00 | 0.00 | 0.00 | 16 | 1006.2 |
| 20260506015548 | 80 | 351 | 1.0 | 2.0 | 0.00 | 0.00 | 0.00 | 15 | 1006.2 |
| 20260506015048 | 80 | 351 | 1.0 | 3.0 | 0.00 | 0.00 | 0.00 | 15 | 1005.9 |
| 20260506014546 | 81 | 351 | 1.0 | 4.0 | 0.00 | 0.00 | 0.00 | 14 | 1005.8 |
| 20260506014050 | 81 | 351 | 1.0 | 4.0 | 0.00 | 0.00 | 0.00 | 13 | 1006.0 |
| 20260506013546 | 81 | 349 | 1.0 | 4.0 | 0.00 | 0.00 | 0.00 | 13 | 1006.0 |
| 20260506013047 | 81 | 358 | 2.0 | 5.0 | 0.00 | 0.00 | 0.00 | 13 | 1005.9 |
| 20260506012546 | 82 | 352 | 2.0 | 6.0 | 0.00 | 0.00 | 0.00 | 12 | 1005.9 |
| 20260506012046 | 82 | 341 | 3.0 | 5.0 | 0.00 | 0.00 | 0.00 | 12 | 1006.0 |
| 20260506011545 | 82 | 360 | 3.0 | 5.0 | 0.00 | 0.00 | 0.00 | 12 | 1005.9 |
| 20260506011045 | 83 | 358 | 2.0 | 6.0 | 0.00 | 0.00 | 0.00 | 11 | 1005.8 |
| 20260506010645 | 83 | 5 | 3.0 | 6.0 | 0.00 | 0.00 | 0.00 | 11 | 1005.7 |
| 20260506010045 | 83 | 4 | 3.0 | 6.0 | 0.00 | 0.00 | 0.00 | 11 | 1005.7 |
| 20260506005543 | 84 | 17 | 3.0 | 8.0 | 0.00 | 0.00 | 0.00 | 11 | 1005.5 |
| 20260506005043 | 84 | 335 | 3.0 | 10.0 | 0.00 | 0.00 | 0.00 | 10 | 1005.5 |
| 20260506004542 | 84 | 355 | 5.0 | 10.0 | 0.00 | 0.00 | 0.00 | 10 | 1005.4 |
| 20260506004042 | 85 | 353 | 4.0 | 15.0 | 0.00 | 0.00 | 0.00 | 10 | 1005.3 |
| 20260506003543 | 85 | 348 | 6.0 | 15.0 | 0.00 | 0.00 | 0.00 | 9 | 1005.3 |
| 20260506003043 | 85 | 9 | 5.0 | 12.0 | 0.00 | 0.00 | 0.00 | 9 | 1005.2 |
| 20260506002542 | 86 | 343 | 5.0 | 13.0 | 0.00 | 0.00 | 0.00 | 9 | 1005.2 |
| 20260506002042 | 87 | 7 | 7.0 | 13.0 | 0.00 | 0.00 | 0.00 | 9 | 1005.2 |
| 20260506001542 | 87 | 32 | 5.0 | 12.0 | 0.00 | 0.00 | 0.00 | 8 | 1005.1 |
| 20260506001041 | 88 | 27 | 6.0 | 15.0 | 0.00 | 0.00 | 0.00 | 7 | 1005.1 |
| 20260506000644 | 88 | 330 | 4.0 | 10.0 | 0.00 | 0.00 | 0.00 | 9 | 1005.0 |
| 20260506000042 | 88 | 349 | 5.0 | 10.0 | 0.00 | 0.00 | 0.00 | 9 | 1005.0 |
| 20260505235541 | 88 | 353 | 3.0 | 9.0 | 0.00 | 0.00 | 0.00 | 11 | 1005.1 |
| 20260505235041 | 88 | 20 | 2.0 | 10.0 | 0.00 | 0.00 | 0.00 | 11 | 1005.1 |
| 20260505234547 | 88 | 10 | 5.0 | 11.0 | 0.00 | 0.00 | 0.00 | 11 | 1005.1 |
| 20260505234144 | 88 | 13 | 6.0 | 12.0 | 0.00 | 0.00 | 0.00 | 10 | 1005.1 |
| 20260505233540 | 88 | 356 | 4.0 | 10.0 | 0.00 | 0.00 | 0.00 | 11 | 1005.0 |
| 20260505233042 | 88 | 356 | 5.0 | 10.0 | 0.00 | 0.00 | 0.00 | 10 | 1004.7 |
| 20260505232540 | 88 | 342 | 6.0 | 11.0 | 0.00 | 0.00 | 0.00 | 10 | 1004.9 |
| 20260505232041 | 89 | 347 | 5.0 | 11.0 | 0.00 | 0.00 | 0.00 | 10 | 1004.9 |
| 20260505231547 | 89 | 2 | 5.0 | 10.0 | 0.00 | 0.00 | 0.00 | 10 | 1005.0 |
| 20260505231039 | 89 | 336 | 4.0 | 10.0 | 0.00 | 0.00 | 0.00 | 9 | 1004.9 |
| 20260505230639 | 90 | 10 | 3.0 | 10.0 | 0.00 | 0.00 | 0.00 | 10 | 1005.0 |
| 20260505230039 | 90 | 325 | 5.0 | 10.0 | 0.00 | 0.00 | 0.00 | 9 | 1005.0 |
| 20260505225539 | 90 | 5 | 4.0 | 14.0 | 0.00 | 0.00 | 0.00 | 10 | 1004.9 |
| 20260505225040 | 90 | 5 | 3.0 | 14.0 | 0.00 | 0.00 | 0.00 | 9 | 1005.1 |
| 20260505224538 | 90 | 2 | 4.0 | 10.0 | 0.00 | 0.00 | 0.00 | 9 | 1005.0 |
| 20260505224038 | 90 | 313 | 6.0 | 12.0 | 0.00 | 0.00 | 0.00 | 9 | 1005.0 |
| 20260505223538 | 90 | 316 | 6.0 | 13.0 | 0.00 | 0.00 | 0.00 | 9 | 1005.0 |
| 20260505223048 | 91 | 295 | 5.0 | 13.0 | 0.00 | 0.00 | 0.00 | 8 | 1005.1 |
| 20260505222537 | 91 | 35 | 6.0 | 13.0 | 0.00 | 0.00 | 0.00 | 9 | 1005.2 |
| 20260505222038 | 91 | 336 | 3.0 | 11.0 | 0.00 | 0.00 | 0.00 | 8 | 1005.1 |
| 20260505221537 | 91 | 325 | 6.0 | 14.0 | 0.00 | 0.00 | 0.00 | 9 | 1005.1 |
| 20260505221036 | 91 | 2 | 7.0 | 14.0 | 0.00 | 0.00 | 0.00 | 8 | 1005.1 |
| 20260505220637 | 91 | 29 | 5.0 | 14.0 | 0.00 | 0.00 | 0.00 | 8 | 1005.1 |
| 20260505220042 | 91 | 321 | 6.0 | 14.0 | 0.00 | 0.00 | 0.00 | 8 | 1005.3 |
| 20260505215538 | 91 | 325 | 8.0 | 14.0 | 0.00 | 0.00 | 0.00 | 8 | 1005.4 |
| 20260505215038 | 92 | 360 | 6.0 | 16.0 | 0.00 | 0.00 | 0.00 | 8 | 1005.4 |
| 20260505214547 | 92 | 345 | 6.0 | 16.0 | 0.00 | 0.00 | 0.00 | 7 | 1005.5 |
| 20260505214037 | 92 | 306 | 7.0 | 15.0 | 0.00 | 0.00 | 0.00 | 8 | 1005.5 |
| 20260505213536 | 91 | 358 | 4.0 | 14.0 | 0.00 | 0.00 | 0.00 | 8 | 1005.6 |
| 20260505213038 | 91 | 323 | 9.0 | 16.0 | 0.00 | 0.00 | 0.00 | 8 | 1005.7 |
| 20260505212536 | 92 | 304 | 8.0 | 15.0 | 0.00 | 0.00 | 0.00 | 8 | 1005.6 |
| 20260505212035 | 92 | 351 | 6.0 | 15.0 | 0.00 | 0.00 | 0.00 | 8 | 1005.8 |
| 20260505211536 | 92 | 339 | 7.0 | 14.0 | 0.00 | 0.00 | 0.00 | 8 | 1005.8 |
| 20260505211038 | 92 | 338 | 7.0 | 19.0 | 0.00 | 0.00 | 0.00 | 7 | 1005.8 |
| 20260505210635 | 92 | 358 | 7.0 | 19.0 | 0.00 | 0.00 | 0.00 | 8 | 1005.8 |
| 20260505210034 | 92 | 340 | 8.0 | 19.0 | 0.00 | 0.00 | 0.00 | 8 | 1005.9 |
| 20260505205533 | 92 | 310 | 7.0 | 14.0 | 0.00 | 0.00 | 0.00 | 8 | 1005.8 |
| 20260505205032 | 92 | 331 | 6.0 | 15.0 | 0.00 | 0.00 | 0.00 | 8 | 1005.9 |
| 20260505204535 | 91 | 337 | 7.0 | 15.0 | 0.00 | 0.00 | 0.00 | 9 | 1006.0 |
| 20260505204030 | 90 | 2 | 6.0 | 13.0 | 0.00 | 0.00 | 0.00 | 9 | 1006.1 |
| 20260505203530 | 90 | 264 | 8.0 | 14.0 | 0.00 | 0.00 | 0.00 | 9 | 1006.0 |
| 20260505203032 | 91 | 312 | 6.0 | 14.0 | 0.00 | 0.00 | 0.00 | 8 | 1006.2 |
| 20260505202530 | 92 | 338 | 7.0 | 15.0 | 0.00 | 0.00 | 0.00 | 8 | 1006.2 |
| 20260505202030 | 92 | 328 | 9.0 | 13.0 | 0.00 | 0.00 | 0.00 | 8 | 1006.2 |
| 20260505201528 | 92 | 329 | 6.0 | 14.0 | 0.00 | 0.00 | 0.00 | 8 | 1006.2 |
| 20260505201029 | 91 | 316 | 8.0 | 18.0 | 0.00 | 0.00 | 0.00 | 9 | 1006.3 |
| 20260505200629 | 91 | 336 | 8.0 | 18.0 | 0.00 | 0.00 | 0.00 | 9 | 1006.4 |
| 20260505200040 | 91 | 344 | 9.0 | 18.0 | 0.00 | 0.00 | 0.00 | 8 | 1006.4 |
| 20260505195534 | 91 | 306 | 8.0 | 18.0 | 0.00 | 0.00 | 0.00 | 8 | 1006.4 |
| 20260505195031 | 91 | 308 | 9.0 | 13.0 | 0.00 | 0.00 | 0.00 | 8 | 1006.5 |
| 20260505194529 | 91 | 309 | 6.0 | 12.0 | 0.00 | 0.00 | 0.00 | 9 | 1006.5 |
| 20260505194029 | 90 | 338 | 8.0 | 17.0 | 0.00 | 0.00 | 0.00 | 9 | 1006.5 |
| 20260505193529 | 90 | 290 | 6.0 | 18.0 | 0.00 | 0.00 | 0.00 | 9 | 1006.5 |
| 20260505193030 | 90 | 12 | 8.0 | 18.0 | 0.00 | 0.00 | 0.00 | 9 | 1006.5 |
| 20260505192531 | 90 | 334 | 9.0 | 18.0 | 0.00 | 0.00 | 0.00 | 9 | 1006.5 |
| 20260505192028 | 90 | 309 | 11.0 | 19.0 | 0.00 | 0.00 | 0.00 | 9 | 1006.6 |
| 20260505191528 | 90 | 281 | 7.0 | 19.0 | 0.00 | 0.00 | 0.00 | 9 | 1006.7 |
| 20260505191028 | 90 | 327 | 10.0 | 19.0 | 0.00 | 0.00 | 0.00 | 9 | 1006.7 |
| 20260505190627 | 90 | 309 | 8.0 | 14.0 | 0.00 | 0.00 | 0.00 | 9 | 1006.9 |
| 20260505190031 | 90 | 327 | 7.0 | 14.0 | 0.00 | 0.00 | 0.00 | 9 | 1006.9 |
| 20260505185623 | 89 | 351 | 7.0 | 14.0 | 0.00 | 0.00 | 0.00 | 10 | 1006.8 |
| 20260505185023 | 89 | 324 | 8.0 | 17.0 | 0.00 | 0.00 | 0.00 | 9 | 1006.8 |
| 20260505184523 | 89 | 284 | 8.0 | 22.0 | 0.00 | 0.00 | 0.00 | 9 | 1006.9 |
| 20260505184023 | 89 | 340 | 9.0 | 22.0 | 0.00 | 0.00 | 0.00 | 9 | 1007.0 |
| 20260505183521 | 90 | 320 | 7.0 | 16.0 | 0.00 | 0.00 | 0.00 | 9 | 1007.1 |
| 20260505183021 | 90 | 330 | 7.0 | 15.0 | 0.00 | 0.00 | 0.00 | 9 | 1007.1 |
| 20260505182521 | 90 | 38 | 6.0 | 16.0 | 0.00 | 0.00 | 0.00 | 9 | 1007.2 |
| 20260505182022 | 89 | 344 | 5.0 | 16.0 | 0.00 | 0.00 | 0.00 | 10 | 1007.3 |
| 20260505181521 | 89 | 299 | 8.0 | 20.0 | 0.00 | 0.00 | 0.00 | 10 | 1007.5 |
| 20260505181021 | 89 | 286 | 9.0 | 20.0 | 0.00 | 0.00 | 0.00 | 9 | 1007.5 |
| 20260505180619 | 89 | 344 | 6.0 | 14.0 | 0.00 | 0.00 | 0.00 | 10 | 1007.5 |
| 20260505180022 | 89 | 319 | 6.0 | 14.0 | 0.00 | 0.00 | 0.00 | 10 | 1007.7 |
| 20260505175522 | 89 | 336 | 9.0 | 16.0 | 0.00 | 0.00 | 0.00 | 10 | 1007.6 |
| 20260505175021 | 88 | 327 | 5.0 | 19.0 | 0.00 | 0.00 | 0.00 | 11 | 1007.6 |
| 20260505174521 | 88 | 318 | 6.0 | 19.0 | 0.00 | 0.00 | 0.00 | 10 | 1007.7 |
| 20260505174021 | 89 | 342 | 7.0 | 19.0 | 0.00 | 0.00 | 0.00 | 11 | 1007.6 |
| 20260505173521 | 89 | 343 | 11.0 | 19.0 | 0.00 | 0.00 | 0.00 | 11 | 1007.7 |
| 20260505173019 | 88 | 19 | 4.0 | 13.0 | 0.00 | 0.00 | 0.00 | 12 | 1007.7 |
| 20260505172520 | 88 | 333 | 7.0 | 14.0 | 0.00 | 0.00 | 0.00 | 12 | 1007.8 |
| 20260505172019 | 87 | 348 | 4.0 | 11.0 | 0.00 | 0.00 | 0.00 | 15 | 1007.8 |
| 20260505171522 | 87 | 334 | 6.0 | 11.0 | 0.00 | 0.00 | 0.00 | 15 | 1007.9 |
| 20260505171016 | 86 | 346 | 6.0 | 9.0 | 0.00 | 0.00 | 0.00 | 17 | 1007.7 |
| 20260505170516 | 86 | 346 | 6.0 | 9.0 | 0.00 | 0.00 | 0.00 | 17 | 1007.9 |
| 20260505170017 | 86 | 351 | 6.0 | 9.0 | 0.00 | 0.00 | 0.00 | 17 | 1008.0 |
| 20260505165512 | 85 | 27 | 5.0 | 10.0 | 0.00 | 0.00 | 0.00 | 21 | 1008.0 |
| 20260505165013 | 85 | 335 | 3.0 | 10.0 | 0.00 | 0.00 | 0.00 | 23 | 1008.0 |
| 20260505164509 | 84 | 346 | 4.0 | 10.0 | 0.00 | 0.00 | 0.00 | 21 | 1008.0 |
| 20260505164008 | 83 | 353 | 4.0 | 13.0 | 0.00 | 0.00 | 0.00 | 23 | 1008.0 |
| 20260505163509 | 83 | 354 | 3.0 | 13.0 | 0.00 | 0.00 | 0.00 | 26 | 1007.9 |
| 20260505163009 | 83 | 341 | 4.0 | 10.0 | 0.00 | 0.00 | 0.00 | 25 | 1007.9 |
| 20260505162505 | 83 | 338 | 5.0 | 11.0 | 0.00 | 0.00 | 0.00 | 24 | 1007.9 |
| 20260505162004 | 82 | 313 | 5.0 | 11.0 | 0.00 | 0.00 | 0.00 | 27 | 1008.0 |
| 20260505161503 | 81 | 342 | 3.0 | 7.0 | 0.00 | 0.00 | 0.00 | 35 | 1007.9 |
| 20260505161001 | 80 | 24 | 0.0 | 4.0 | 0.00 | 0.00 | 0.00 | 40 | 1008.0 |
| 20260505160601 | 78 | 175 | 0.0 | 3.0 | 0.00 | 0.00 | 0.00 | 43 | 1007.9 |
| 20260505153058 | 75 | 144 | 2.0 | 5.0 | 0.00 | 0.00 | 0.00 | 54 | 1007.9 |
| 20260505152557 | 74 | 117 | 1.0 | 5.0 | 0.00 | 0.00 | 0.00 | 55 | 1007.9 |
| 20260505152055 | 74 | 165 | 3.0 | 6.0 | 0.00 | 0.00 | 0.00 | 55 | 1007.9 |
| 20260505151555 | 74 | 202 | 4.0 | 7.0 | 0.00 | 0.00 | 0.00 | 54 | 1008.0 |
| 20260505151057 | 74 | 214 | 2.0 | 6.0 | 0.00 | 0.00 | 0.00 | 53 | 1007.9 |
| 20260505150553 | 73 | 193 | 1.0 | 5.0 | 0.00 | 0.00 | 0.00 | 55 | 1007.8 |
| 20260505140539 | 68 | 174 | 2.0 | 4.0 | 0.00 | 0.00 | 0.00 | 62 | 1007.9 |
| 20260505125029 | 65 | 196 | 0.0 | 1.0 | 0.00 | 0.00 | 0.00 | 64 | 1007.1 |
| 20260505124530 | 65 | 196 | 0.0 | 1.0 | 0.00 | 0.00 | 0.00 | 64 | 1007.0 |
| 20260505124027 | 65 | 196 | 0.0 | 1.0 | 0.00 | 0.00 | 0.00 | 64 | 1006.9 |
| 20260505123530 | 65 | 196 | 0.0 | 1.0 | 0.00 | 0.00 | 0.00 | 65 | 1006.8 |
| 20260505123026 | 65 | 196 | 0.0 | 2.0 | 0.00 | 0.00 | 0.00 | 64 | 1006.7 |
| 20260505122526 | 65 | 196 | 0.0 | 3.0 | 0.00 | 0.00 | 0.00 | 64 | 1006.6 |
| 20260505122028 | 65 | 231 | 1.0 | 3.0 | 0.00 | 0.00 | 0.00 | 64 | 1006.5 |
| 20260505121526 | 65 | 269 | 0.0 | 1.0 | 0.00 | 0.00 | 0.00 | 64 | 1006.5 |
| 20260505121025 | 65 | 270 | 0.0 | 1.0 | 0.00 | 0.00 | 0.00 | 64 | 1006.6 |
| 20260505120525 | 65 | 270 | 0.0 | 0.0 | 0.00 | 0.00 | 0.00 | 64 | 1006.5 |
| 20260505115527 | 65 | 270 | 0.0 | 1.0 | 0.00 | 0.00 | 0.00 | 64 | 1006.4 |
| 20260505115027 | 65 | 271 | 0.0 | 1.0 | 0.00 | 0.00 | 0.00 | 64 | 1006.4 |
| 20260505114527 | 65 | 275 | 0.0 | 2.0 | 0.00 | 0.00 | 0.00 | 64 | 1006.4 |
| 20260505114027 | 65 | 277 | 0.0 | 2.0 | 0.00 | 0.00 | 0.00 | 65 | 1006.3 |
| 20260505113525 | 65 | 279 | 0.0 | 1.0 | 0.00 | 0.00 | 0.00 | 64 | 1006.3 |
| 20260505113025 | 65 | 278 | 0.0 | 0.0 | 0.00 | 0.00 | 0.00 | 64 | 1006.3 |
| 20260505112525 | 65 | 271 | 0.0 | 0.0 | 0.00 | 0.00 | 0.00 | 64 | 1006.4 |
| 20260505112025 | 65 | 270 | 0.0 | 2.0 | 0.00 | 0.00 | 0.00 | 64 | 1006.4 |
| 20260505111533 | 65 | 269 | 0.0 | 2.0 | 0.00 | 0.00 | 0.00 | 63 | 1006.4 |
| 20260505111023 | 65 | 269 | 0.0 | 2.0 | 0.00 | 0.00 | 0.00 | 63 | 1006.2 |
| 20260505110522 | 66 | 269 | 0.0 | 2.0 | 0.00 | 0.00 | 0.00 | 63 | 1006.3 |
| 20260505102013 | 68 | 269 | 0.0 | 2.0 | 0.00 | 0.00 | 0.00 | 60 | 1006.1 |
| 20260505101513 | 68 | 269 | 0.0 | 3.0 | 0.00 | 0.00 | 0.00 | 60 | 1006.1 |
| 20260505101013 | 68 | 269 | 0.0 | 3.0 | 0.00 | 0.00 | 0.00 | 60 | 1006.2 |
| 20260505100513 | 69 | 193 | 0.0 | 3.0 | 0.00 | 0.00 | 0.00 | 60 | 1006.1 |
| 20260505095513 | 69 | 193 | 0.0 | 2.0 | 0.00 | 0.00 | 0.00 | 60 | 1006.0 |
| 20260505095012 | 69 | 193 | 1.0 | 2.0 | 0.00 | 0.00 | 0.00 | 59 | 1006.0 |
| 20260505094612 | 69 | 193 | 0.0 | 2.0 | 0.00 | 0.00 | 0.00 | 59 | 1006.0 |
| 20260505094012 | 69 | 193 | 1.0 | 3.0 | 0.00 | 0.00 | 0.00 | 60 | 1005.9 |
| 20260505093512 | 69 | 193 | 1.0 | 4.0 | 0.00 | 0.00 | 0.00 | 60 | 1006.0 |
| 20260505093012 | 69 | 193 | 2.0 | 4.0 | 0.00 | 0.00 | 0.00 | 60 | 1005.9 |
| 20260505092512 | 69 | 193 | 0.0 | 2.0 | 0.00 | 0.00 | 0.00 | 60 | 1006.0 |
| 20260505092011 | 69 | 193 | 0.0 | 2.0 | 0.00 | 0.00 | 0.00 | 59 | 1006.0 |
| 20260505091511 | 69 | 193 | 0.0 | 2.0 | 0.00 | 0.00 | 0.00 | 59 | 1006.0 |
| 20260505091011 | 69 | 193 | 0.0 | 2.0 | 0.00 | 0.00 | 0.00 | 59 | 1006.1 |
| 20260505090512 | 69 | 193 | 0.0 | 2.0 | 0.00 | 0.00 | 0.00 | 59 | 1005.9 |
| 20260505085510 | 70 | 193 | 0.0 | 4.0 | 0.00 | 0.00 | 0.00 | 59 | 1006.0 |
| 20260505085011 | 70 | 193 | 2.0 | 6.0 | 0.00 | 0.00 | 0.00 | 59 | 1005.9 |
| 20260505084517 | 70 | 220 | 2.0 | 6.0 | 0.00 | 0.00 | 0.00 | 59 | 1006.0 |
| 20260505084010 | 70 | 212 | 2.0 | 4.0 | 0.00 | 0.00 | 0.00 | 58 | 1006.0 |
| 20260505083510 | 70 | 197 | 2.0 | 4.0 | 0.00 | 0.00 | 0.00 | 58 | 1006.2 |
| 20260505083013 | 70 | 185 | 1.0 | 4.0 | 0.00 | 0.00 | 0.00 | 58 | 1006.2 |
| 20260505082509 | 70 | 166 | 1.0 | 3.0 | 0.00 | 0.00 | 0.00 | 58 | 1006.0 |
| 20260505082011 | 70 | 167 | 1.0 | 3.0 | 0.00 | 0.00 | 0.00 | 57 | 1006.3 |
| 20260505081510 | 70 | 166 | 0.0 | 2.0 | 0.00 | 0.00 | 0.00 | 57 | 1006.3 |
| 20260505081010 | 70 | 166 | 0.0 | 2.0 | 0.00 | 0.00 | 0.00 | 57 | 1006.3 |
| 20260505080511 | 71 | 167 | 1.0 | 4.0 | 0.00 | 0.00 | 0.00 | 57 | 1006.4 |
| 20260505075510 | 71 | 193 | 0.0 | 3.0 | 0.00 | 0.00 | 0.00 | 56 | 1006.6 |
| 20260505075014 | 71 | 193 | 0.0 | 1.0 | 0.00 | 0.00 | 0.00 | 56 | 1006.5 |
| 20260505074510 | 71 | 193 | 0.0 | 3.0 | 0.00 | 0.00 | 0.00 | 56 | 1006.6 |
| 20260505074011 | 71 | 193 | 0.0 | 4.0 | 0.00 | 0.00 | 0.00 | 55 | 1006.5 |
| 20260505073511 | 71 | 193 | 2.0 | 4.0 | 0.00 | 0.00 | 0.00 | 55 | 1006.5 |
| 20260505073012 | 71 | 164 | 1.0 | 4.0 | 0.00 | 0.00 | 0.00 | 55 | 1006.6 |
| 20260505072510 | 72 | 186 | 1.0 | 4.0 | 0.00 | 0.00 | 0.00 | 55 | 1006.7 |
| 20260505072010 | 72 | 187 | 2.0 | 5.0 | 0.00 | 0.00 | 0.00 | 54 | 1006.9 |
| 20260505071523 | 72 | 194 | 2.0 | 5.0 | 0.00 | 0.00 | 0.00 | 54 | 1006.9 |
| 20260505071010 | 72 | 191 | 2.0 | 4.0 | 0.00 | 0.00 | 0.00 | 54 | 1006.9 |
| 20260505070510 | 72 | 203 | 3.0 | 9.0 | 0.00 | 0.00 | 0.00 | 53 | 1007.1 |
| 20260505065507 | 72 | 219 | 4.0 | 12.0 | 0.00 | 0.00 | 0.00 | 53 | 1007.1 |
| 20260505065008 | 73 | 181 | 4.0 | 12.0 | 0.00 | 0.00 | 0.00 | 53 | 1007.0 |
| 20260505064516 | 73 | 192 | 7.0 | 10.0 | 0.00 | 0.00 | 0.00 | 53 | 1006.9 |
| 20260505064007 | 73 | 201 | 5.0 | 9.0 | 0.00 | 0.00 | 0.00 | 53 | 1007.2 |
| 20260505063507 | 73 | 196 | 4.0 | 12.0 | 0.00 | 0.00 | 0.00 | 53 | 1007.4 |
| 20260505063013 | 73 | 181 | 6.0 | 12.0 | 0.00 | 0.00 | 0.00 | 52 | 1007.1 |
| 20260505062507 | 73 | 195 | 3.0 | 9.0 | 0.00 | 0.00 | 0.00 | 52 | 1007.3 |
| 20260505062006 | 73 | 179 | 5.0 | 11.0 | 0.00 | 0.00 | 0.00 | 52 | 1007.2 |
| 20260505061509 | 73 | 212 | 4.0 | 12.0 | 0.00 | 0.00 | 0.00 | 52 | 1007.5 |
| 20260505061012 | 73 | 191 | 9.0 | 14.0 | 0.00 | 0.00 | 0.00 | 52 | 1007.5 |
| 20260505060508 | 73 | 168 | 8.0 | 14.0 | 0.00 | 0.00 | 0.00 | 52 | 1007.3 |
| 20260505055506 | 73 | 208 | 5.0 | 10.0 | 0.00 | 0.00 | 0.00 | 53 | 1007.5 |
| 20260505055006 | 72 | 191 | 2.0 | 5.0 | 0.00 | 0.00 | 0.00 | 53 | 1007.6 |
| 20260505054506 | 72 | 165 | 1.0 | 5.0 | 0.00 | 0.00 | 0.00 | 53 | 1007.6 |
| 20260505054006 | 72 | 164 | 2.0 | 6.0 | 0.00 | 0.00 | 0.00 | 53 | 1007.7 |
| 20260505053505 | 73 | 156 | 2.0 | 6.0 | 0.00 | 0.00 | 0.00 | 53 | 1007.8 |
| 20260505053005 | 73 | 186 | 2.0 | 4.0 | 0.00 | 0.00 | 0.00 | 52 | 1007.8 |
| 20260505052506 | 73 | 185 | 2.0 | 5.0 | 0.00 | 0.00 | 0.00 | 52 | 1007.7 |
| 20260505052005 | 73 | 185 | 3.0 | 5.0 | 0.00 | 0.00 | 0.00 | 52 | 1007.8 |
| 20260505051507 | 73 | 165 | 2.0 | 6.0 | 0.00 | 0.00 | 0.00 | 51 | 1007.7 |